This demonstration page uses our WeatherBlox Daily Observations layout. Learn more.

Left ArrowRight Arrow

39.12711, -84.51439

Hourly Observations for June 29, 2018

Temp ( °F °C ) Dew Point ( °F °C ) Humidity (%) Winds ( mph kmh ) Pressure ( in mb ) Visibility ( mi km ) Precip ( " mm )
12:53 am 00:53 Clear 69 20.6 69 20.6 100 100 N N/A 29.99 1016 8 13 N/A
1:53 am 01:53 Clear 70 21.1 69 20.6 97 97 N N/A 29.98 1015 8 13 N/A
2:53 am 02:53 Clear with Mist and Fog 68 20 68 20 100 100 N N/A 29.98 1015 4 6 N/A
3:53 am 03:53 Clear with Mist and Fog 68 20 68 20 100 100 N N/A 29.97 1015 5 8 N/A
4:00 am 04:00 Clear with Mist and Fog 68 20 68 20 100 100 N N/A 29.94 1014 2 3 N/A
4:12 am 04:12 Clear with Mist and Fog 67 19.4 67 19.4 100 100 N N/A 29.94 1014 4 6 N/A
4:40 am 04:40 Clear with Mist and Fog 66 18.9 66 18.9 100 100 N N/A 29.94 1014 3 4 N/A
4:48 am 04:48 Clear with Mist and Fog 66 19 66 19 100 100 N N/A 29.94 1014 4 6 N/A
4:51 am 04:51 Clear with Mist and Fog 66 19 66 19 100 100 N N/A 29.94 1014 2 3 N/A
4:53 am 04:53 Clear with Mist and Fog 67 19.4 67 19.4 100 100 N N/A 29.96 1015 2 2 N/A
5:04 am 05:04 Mostly Cloudy with Fog 66 18.9 66 18.9 100 100 N N/A 29.97 1015 0 0 N/A
5:12 am 05:12 Mostly Cloudy with Fog 66 18.9 66 18.9 100 100 N N/A 29.97 1015 1 1 N/A
5:15 am 05:15 Mostly Clear with Mist and Fog 66 18.9 66 18.9 100 100 N N/A 29.97 1015 2 2 N/A
5:22 am 05:22 Partly Cloudy with Mist and Fog 66 18.9 66 18.9 100 100 N N/A 29.97 1015 2 3 N/A
5:33 am 05:33 Mostly Clear with Mist and Fog 67 19.4 67 19.4 100 100 N N/A 29.97 1015 4 6 N/A
5:53 am 05:53 Clear with Mist and Fog 67 19.4 67 19.4 100 100 N N/A 30.00 1016 5 8 N/A
6:28 am 06:28 Partly Cloudy with Mist and Fog 66 18.9 66 18.9 100 100 N N/A 30.00 1016 4 6 N/A
6:38 am 06:38 Partly Cloudy with Mist and Fog 66 18.9 66 18.9 100 100 N N/A 30.03 1017 2 3 N/A
6:46 am 06:46 Partly Cloudy with Mist and Fog 67 19.4 67 19.4 100 100 N N/A 30.03 1017 3 5 N/A
6:53 am 06:53 Sunny with Patchy Fog 66 18.9 66 18.9 100 100 N N/A 30.03 1017 5 8 N/A
7:53 am 07:53 Sunny 70 21.1 70 21.1 100 100 N N/A 30.05 1018 10 16 N/A
8:53 am 08:53 Sunny 75 23.9 72 22.2 90 90 N N/A 30.06 1018 8 13 N/A
9:53 am 09:53 Sunny 80 26.7 73 22.8 79 79 N N/A 30.07 1018 10 16 N/A
10:53 am 10:53 Sunny 83 28.3 73 22.8 72 72 SSW 6 9 30.06 1018 10 16 N/A
11:53 am 11:53 Mostly Sunny 85 29.4 72 22.2 65 65 SE 5 7 30.06 1018 10 16 N/A
12:53 pm 12:53 Mostly Sunny 86 30 71 21.7 61 61 WSW 6 9 30.05 1018 10 16 N/A
1:53 pm 13:53 Mostly Sunny 88 31.1 71 21.7 57 57 S 9 15 30.04 1017 10 16 N/A
2:53 pm 14:53 Mostly Sunny 88 31.1 72 22.2 59 59 VRB 3 6 30.02 1017 10 16 N/A
3:53 pm 15:53 Mostly Sunny 89 31.7 73 22.8 59 59 SSW 5 7 30.02 1017 10 16 N/A
4:53 pm 16:53 Partly Cloudy 89 31.7 73 22.8 59 59 S 9 15 30.02 1017 10 16 N/A
5:53 pm 17:53 Mostly Sunny 89 31.7 72 22.2 57 57 S 8 13 30.01 1016 10 16 N/A
6:53 pm 18:53 Mostly Sunny 88 31.1 73 22.8 61 61 S 7 11 30.00 1016 10 16 N/A
7:53 pm 19:53 Sunny 87 30.6 74 23.3 65 65 SSE 3 6 30.00 1016 10 16 N/A
8:53 pm 20:53 Sunny 81 27.2 75 23.9 82 82 N N/A 30.00 1016 10 16 N/A
9:53 pm 21:53 Clear 77 25 74 23.3 90 90 N N/A 30.01 1016 10 16 N/A
10:53 pm 22:53 Clear 74 23.3 73 22.8 97 97 N N/A 30.03 1017 10 16 N/A
11:53 pm 23:53 Clear 73 22.8 72 22.2 96 96 N N/A 30.04 1017 10 16 N/A

Powered by AerisWeather